Zurück zum Katalog

STARLINK-36313

AktivKommunikationSSO
NORAD 68156·PAYLOAD·🇺🇸 United States

Gestartet Mar 13, 2026 von Vandenberg Space Force Base

Loading…

Nächste Überflüge (nächste 24 Stunden)

TLE

AktuellSource: CelesTrak SupGP

Epoche: Sep 15, 2026, 03:30 UTC

1 68156C 26049Q   26258.14631944 -.00059344  00000+0 -18425-2 0  2588
2 68156  97.2839 278.1231 0001452  88.3408  27.0816 15.33464102    17

Verfolge STARLINK-36313 in Echtzeit mit AllMySat

Download on the App Store